Flag for Germany Weather past 2 weeks in Brühl (Rhineland), North Rhine-Westphalia, Germany

Now
45 °F

Quite cool.


Feels Like: 45 °F
Forecast: 38 / 65 °F
Wind: No wind

Location: Noervenich

Current Time: Apr 20, 2015 at 2:54:48 AM

Latest Report: Apr 20, 2015 at 1:00 AM


Visibility: 3 mi

Pressure: 30.24 "Hg

Humidity: 68%

Dew point: 35 °F

Location of Brühl (Rhineland)Location

Historic Weather in Brühl (Rhineland) — Graph

°F

Brühl (Rhineland) temperature yesterday

Maximum temperature yesterday: 60 °F (at 6:00 PM)
Minimum temperature yesterday: 33 °F (at 7:00 AM)
Average temperature yesterday: 46 °F

Past Weeks' High & Low Weather Summary

 TemperatureHumidityPressure
High75 °F (Apr 15, 4:00 PM)97% (Apr 7, 6:00 AM)30.66 "Hg (Apr 7, 6:00 AM)
Low29 °F (Apr 7, 7:00 AM)25% (Apr 10, 6:00 PM)29.92 "Hg (Apr 16, 7:00 PM)
Average50 °F65%30.28 "Hg
* Reported Apr 5 1:00 AM — Apr 20 1:00 AM, Brühl (Rhineland), Weather by CustomWeather, © 2015

Note: Actual official high and low records may vary slightly from our data, if they occured in-between our weather recording intervals... More about our weather records

Advertising

Brühl (Rhineland) weather history for previous 24 hours

 ConditionsComfort  
Time TempWeatherWind HumidityBarometerVisibility
1:00 AM
Mon, Apr 20
45 °FQuite cool.No wind68%30.24 "Hg3 mi
12:00 AM48 °FCool.No wind59%30.23 "Hg3 mi
10:00 PM
Sun, Apr 19
51 °FCool.1 mph57%30.20 "Hg3 mi
9:00 PM54 °FCool.2 mph51%30.18 "Hg3 mi
7:00 PM60 °FPassing clouds.1 mph32%30.14 "Hg12 mi
6:00 PM60 °FScattered clouds.2 mph32%30.14 "Hg12 mi
4:00 PM59 °FOvercast.2 mph35%30.14 "Hg12 mi
3:00 PM57 °FOvercast.2 mph38%30.16 "Hg12 mi
1:00 PM53 °FOvercast.1 mph43%30.17 "Hg12 mi
12:00 PM51 °FCool.N/A53%30.18 "Hg4 mi
10:00 AM45 °FQuite cool.No wind72%30.20 "Hg4 mi
9:00 AM41 °FQuite cool.No wind82%30.20 "Hg3 mi
8:00 AM38 °FChilly.1 mph82%30.21 "Hg3 mi
7:00 AM33 °FChilly.1 mph91%30.20 "Hg2 mi
6:00 AM34 °FChilly.1 mph87%30.21 "Hg3 mi
4:00 AM38 °FChilly.1 mph74%30.23 "Hg3 mi
3:00 AM38 °FChilly.1 mph72%30.24 "Hg3 mi
2:00 AM38 °FChilly.1 mph72%30.26 "Hg4 mi
Weather by CustomWeather, © 2015

See weather overviewHow to use our weather pages